Date,TemperatureHighF,TemperatureAvgF,TemperatureLowF,DewpointHighF,DewpointAvgF,DewpointLowF,HumidityHigh,HumidityAvg,HumidityLow,PressureMaxIn,PressureMinIn,WindSpeedMaxMPH,WindSpeedAvgMPH,GustSpeedMaxMPH,PrecipitationSumIn
2013-3-1,43,32,21,33,26,19,92,80,56,30.36,30.13,13,6,18,0.00
2013-3-2,52,42,34,39,35,32,93,77,59,30.14,29.84,14,6,19,0.00
2013-3-3,52,38,31,42,35,30,97,88,67,29.84,29.52,22,7,30,0.04
2013-3-4,31,18,9,30,15,7,97,91,88,30.49,29.66,29,20,41,0.00
2013-3-5,18,11,2,14,8,-2,91,87,78,30.59,30.41,15,5,19,0.00
2013-3-6,25,18,8,22,15,6,91,89,83,30.42,30.01,19,10,28,0.00
2013-3-7,33,24,14,29,21,12,95,90,82,30.25,29.99,19,6,25,0.00
2013-3-8,29,24,18,27,22,16,97,93,88,30.26,30.04,11,6,16,0.00
2013-3-9,31,25,12,29,23,10,96,90,77,30.34,30.00,19,9,26,0.00
2013-3-10,41,25,9,27,19,6,94,79,50,30.39,30.01,9,3,12,0.00
2013-3-11,37,29,18,29,23,14,86,78,62,30.29,29.93,29,17,38,0.00
2013-3-12,33,23,12,22,16,10,90,77,53,30.44,30.25,20,8,28,0.00
2013-3-13,58,40,27,44,32,22,94,75,52,30.25,29.99,13,8,17,0.00
2013-3-14,61,42,28,44,35,26,95,78,44,30.10,29.99,11,6,16,0.00
2013-3-15,34,27,16,32,26,13,97,95,87,30.24,29.86,22,8,30,0.00
2013-3-16,18,16,13,16,12,10,93,88,84,30.27,30.02,14,8,19,0.00
2013-3-17,30,24,18,27,22,15,95,92,86,30.02,29.55,24,9,34,0.00
2013-3-18,24,14,1,19,9,-3,90,80,67,30.17,29.98,23,7,33,0.00
2013-3-19,22,14,7,20,10,4,93,81,57,30.53,30.08,19,10,27,0.00
2013-3-20,38,26,10,24,16,5,81,65,51,30.50,29.87,20,11,29,0.00
2013-3-21,28,24,21,22,17,11,93,75,61,29.97,29.78,19,10,27,0.00
2013-3-22,25,20,13,23,18,10,94,89,80,30.23,29.94,18,9,23,0.00
2013-3-23,19,13,6,14,9,3,90,85,75,30.44,30.23,20,12,26,0.00
2013-3-24,19,11,-2,15,7,-6,92,86,80,30.55,30.43,15,9,19,0.00
2013-3-25,27,13,-4,20,9,-7,93,83,72,30.56,30.34,8,3,11,0.00
2013-3-26,41,26,11,31,20,8,93,78,59,30.33,30.13,10,4,12,0.05
2013-3-27,44,32,19,35,27,17,96,84,61,30.18,30.13,7,2,10,0.01
2013-3-28,51,38,28,39,32,26,94,80,56,30.18,30.13,10,5,14,0.00
2013-3-29,56,42,33,43,37,31,96,83,54,30.15,30.01,13,3,18,0.00
2013-3-30,50,39,30,39,33,24,94,81,59,30.15,30.06,22,9,30,0.00
2013-3-31,31,27,20,25,23,17,92,84,75,30.33,30.08,10,5,15,0.00